Tracking 30072 objects as of 14-Jan-2025
HD Live streaming from Space Station
objects crossing your sky now

SL-8 DEB

Track SL-8 DEB now!
10-day predictions


NORAD ID: 29284
Int'l Code: 1981-120N
Perigee: 1,647.3 km
Apogee: 1,706.5 km
Inclination: 83.0 °
Period: 119.8 minutes
Semi major axis: 8047 km
RCS: 0.0077 m2 (small)
Launch date: December 17, 1981
Source: Commonwealth of Independent States (former USSR) (CIS)
Launch site: PLESETSK MISSILE AND SPACE COMPLEX (PKMTR)

Note: This is SATELLITE DEBRIS
Your satellite tracking list
Your tracking list is empty




NASA's NSSDC Master Catalog

Two Line Element Set (TLE):
1 29284U 81120N   25010.37152485 -.00000050  00000-0 -71618-3 0  9993
2 29284  82.9598  60.0656 0036785 154.8794 218.5707 12.02492473483681
Source of the keplerian elements: AFSPC